Temp
-3 -2 -1 0 1 2 2 2 4 2 3 5 4 5 6 7 7 7 7 7 7 7 6 6 6 6 5 5 5 5 4 5 5 5 5 5 5 5 5 5 5 4 4
-3 -2 -1 1 1 2 2 2 1 0 4 3 4 5 6 6 7 7 7 7 7 6 6 6 6 6 5 5 5 5 5 4 5 5 5 5 5 5 5 4 4 4 4
-3 -2 -1 0 1 2 3 5 1 1 2 3 5 5 5 5 6 6 7 7 7 6 6 6 6 5 5 5 5 4 4 5 4 5 4 4 4 4 4 4 3 4 3
-3 -0 0 1 1 2 4 3 3 2 2 1 5 5 5 6 6 6 6 7 6 6 6 6 5 5 5 5 5 4 4 5 5 4 4 4 4 4 4 4 4 4 3
-2 0 1 2 1 2 3 3 4 1 1 3 5 5 5 5 6 6 6 6 6 6 6 5 5 5 5 5 5 4 4 4 4 4 4 4 4 4 4 4 3 3 4
-2 0 0 2 2 3 2 2 4 1 1 3 4 5 5 5 5 6 6 6 6 5 5 5 5 5 5 5 4 4 4 4 4 4 4 4 4 3 3 3 4 3 3
-1 -0 0 2 3 3 3 2 3 4 2 4 4 4 4 5 5 5 6 6 5 5 5 5 5 5 5 5 5 4 4 4 4 4 4 3 3 3 3 3 4 4 3
-1 0 2 3 3 3 3 3 3 2 0 2 2 4 3 3 4 4 5 5 5 5 5 5 5 5 4 4 4 4 4 4 4 4 3 2 2 3 2 3 3 3 2
-0 2 2 2 3 4 3 4 4 4 3 3 1 2 3 3 4 4 4 4 4 4 5 5 4 4 4 4 4 4 3 3 3 4 3 2 2 2 2 3 2 2 2
0 1 2 3 3 4 4 4 4 5 2 3 4 2 1 2 3 3 4 4 4 4 4 4 4 4 4 4 4 4 3 3 3 2 2 2 1 1 2 2 2 2 1
1 2 2 2 3 4 5 5 5 4 3 2 2 3 4 2 1 1 3 3 3 3 3 3 3 3 2 3 3 2 2 2 2 1 1 1 1 1 1 1 1 1 1
0 2 2 3 3 3 4 3 4 3 3 2 2 2 2 3 2 2 2 3 3 2 2 2 2 2 2 2 2 2 2 1 1 2 2 1 1 1 1 1 1 1 1
0 1 0 1 2 3 2 2 3 3 3 2 2 2 2 2 3 3 2 2 2 2 2 1 1 2 2 1 1 1 2 2 1 1 1 1 1 1 0 0 1 1 1
0 0 -0 -0 -0 0 1 1 1 1 2 2 2 2 2 1 1 2 1 1 2 2 2 1 1 1 1 1 2 0 0 1 1 1 1 1 1 1 0 1 1 1 1
-0 0 -0 -0 -1 -0 0 1 1 1 1 2 2 1 1 1 1 1 2 2 2 1 2 1 1 1 1 1 1 1 1 1 1 1 1 1 1 1 0 1 1 1 1
-1 -0 -0 -0 -0 -0 0 1 1 1 2 2 2 2 2 1 2 2 2 2 2 1 1 1 1 1 1 1 1 1 0 1 1 1 1 1 1 1 0 0 0 0 1
-1 -1 -1 -1 -0 -0 0 1 1 2 2 2 2 2 2 2 1 1 1 1 1 1 1 1 0 0 0 0 0 0 1 1 1 1 1 1 0 0 0 0 0 0 0
0 0 0 -0 -0 -0 -0 0 1 1 1 1 1 1 1 1 1 1 1 1 0 0 0 0 -0 -0 -0 0 0 0 0 0 0 0 0 -0 -0 -0 -0 -0 -0 -0 -0
-0 -0 0 0 0 0 -0 -0 -0 0 0 0 0 1 1 0 -0 -0 0 0 -0 -0 -0 -0 -0 0 -0 0 0 -0 -0 -0 -0 -0 -1 -1 -1 -1 -1 -1 -1 -1 -0
-1 -1 -1 -0 -0 0 -0 -0 -0 -0 -1 -1 -0 -0 -0 -0 -0 -0 -1 -1 -1 -1 -1 -1 -1 -1 -0 -0 -1 -1 -1 -1 -1 -1 -1 -1 -1 -1 -1 -1 -1 -1 -1
-1 -2 -1 -1 -1 -1 -1 -1 -1 -1 -1 -1 -0 -1 -1 -1 -1 -1 -1 -1 -1 -1 -1 -1 -1 -1 -1 -1 -1 -1 -2 -1 -2 -2 -2 -2 -2 -2 -2 -2 -1 -1 -1
-1 -1 -1 -1 -2 -1 -1 -1 -1 -1 -1 -1 -1 -1 -1 -1 -1 -1 -1 -1 -1 -1 -1 -1 -1 -2 -1 -2 -1 -2 -2 -2 -2 -2 -3 -3 -3 -2 -2 -2 -1 -1 -1
-3 -2 -2 -2 -2 -1 -1 -1 -1 -2 -2 -2 -2 -2 -1 -1 -1 -2 -2 -2 -2 -1 -1 -2 -2 -2 -2 -2 -3 -3 -3 -3 -3 -3 -3 -3 -3 -3 -3 -3 -3 -2 -2
-5 -5 -4 -3 -3 -3 -3 -3 -2 -2 -2 -2 -2 -2 -2 -3 -3 -3 -3 -3 -3 -3 -3 -3 -3 -3 -3 -3 -3 -3 -3 -4 -4 -4 -3 -4 -4 -4 -3 -3 -4 -3 -3
-5 -5 -6 -6 -6 -5 -5 -5 -5 -4 -4 -4 -3 -3 -3 -3 -3 -3 -3 -3 -3 -3 -3 -3 -4 -4 -4 -4 -4 -4 -4 -4 -4 -4 -4 -4 -5 -4 -4 -4 -4 -4 -3
-3 -3 -4 -5 -6 -7 -6 -6 -6 -6 -5 -5 -4 -4 -4 -4 -4 -3 -3 -3 -4 -4 -4 -4 -4 -4 -4 -4 -4 -4 -5 -4 -4 -4 -5 -5 -5 -5 -6 -5 -5 -4 -4
Height
2998 2999 2998 3003 3009 3014 3017 3022 3031 3035 3036 3050 3063 3072 3081 3089 3096 3103 3109 3115 3122 3127 3133 3138 3143 3148 3153 3159 3163 3167 3171 3174 3177 3178 3180 3181 3182 3182 3183 3183 3182 3182 3182
2994 2994 2991 2994 3003 3008 3015 3026 3031 3028 3033 3061 3067 3076 3081 3086 3092 3098 3105 3112 3118 3124 3130 3135 3140 3145 3150 3155 3160 3165 3168 3171 3174 3175 3176 3178 3180 3179 3180 3181 3180 3179 3179
2989 2992 2989 2990 2994 3002 3008 3018 3024 3033 3033 3033 3060 3070 3074 3079 3086 3095 3102 3109 3116 3122 3127 3132 3136 3143 3149 3154 3158 3163 3166 3168 3170 3172 3173 3175 3175 3177 3177 3178 3176 3176 3175
2984 2986 2987 2989 2991 2996 3004 3011 3015 3030 3032 3035 3050 3064 3071 3079 3088 3094 3101 3106 3112 3118 3124 3130 3135 3140 3145 3150 3155 3159 3162 3164 3166 3168 3171 3172 3173 3173 3175 3173 3172 3173 3173
2979 2981 2982 2989 2991 2997 3003 3008 3018 3033 3036 3033 3039 3058 3068 3077 3082 3089 3096 3103 3110 3117 3123 3128 3132 3136 3141 3147 3151 3155 3158 3160 3162 3165 3166 3168 3170 3169 3169 3170 3170 3168 3167
2975 2977 2980 2986 2993 2998 3003 3007 3016 3030 3035 3040 3034 3055 3065 3071 3077 3085 3092 3100 3107 3112 3117 3123 3128 3133 3137 3142 3146 3150 3152 3155 3157 3159 3161 3163 3165 3165 3164 3163 3162 3161 3161
2973 2980 2982 2988 2993 3001 3007 3013 3018 3034 3032 3035 3037 3052 3061 3068 3076 3082 3088 3095 3101 3107 3113 3119 3124 3128 3132 3137 3141 3144 3147 3149 3152 3155 3157 3158 3160 3161 3160 3159 3157 3155 3155
2972 2976 2984 2990 2997 3002 3006 3013 3019 3031 3032 3041 3035 3048 3057 3064 3071 3078 3084 3091 3097 3104 3110 3115 3120 3124 3128 3131 3135 3138 3141 3144 3147 3151 3153 3155 3157 3157 3156 3154 3152 3149 3148
2972 2979 2985 2990 2997 3002 3009 3016 3026 3029 3037 3037 3041 3030 3049 3058 3065 3072 3079 3086 3091 3097 3104 3109 3114 3118 3122 3126 3129 3133 3136 3139 3143 3146 3148 3150 3152 3151 3150 3149 3146 3145 3144
2972 2980 2986 2992 2997 3002 3011 3018 3021 3030 3035 3034 3035 3034 3043 3049 3058 3065 3074 3080 3086 3092 3098 3102 3107 3111 3116 3120 3124 3128 3131 3134 3138 3140 3142 3144 3144 3146 3145 3144 3143 3143 3141
2974 2980 2987 2991 2996 3003 3012 3020 3024 3028 3031 3035 3041 3046 3047 3046 3052 3056 3066 3073 3076 3085 3090 3096 3101 3106 3110 3114 3119 3122 3125 3128 3130 3134 3136 3139 3139 3140 3139 3140 3139 3138 3136
2980 2985 2987 2993 2996 3002 3012 3021 3023 3026 3031 3036 3040 3045 3045 3046 3048 3052 3059 3063 3067 3076 3082 3088 3095 3101 3106 3111 3114 3118 3117 3119 3121 3131 3131 3132 3133 3133 3134 3134 3134 3133 3131
2982 2985 2993 2998 3002 3007 3015 3018 3020 3027 3033 3037 3040 3043 3043 3045 3049 3050 3056 3064 3068 3071 3076 3081 3089 3096 3100 3104 3109 3109 3112 3112 3117 3121 3124 3125 3126 3128 3127 3128 3128 3127 3125
2986 2990 2997 3002 3008 3015 3017 3020 3025 3031 3035 3037 3037 3038 3043 3051 3054 3056 3062 3067 3066 3068 3073 3080 3086 3093 3095 3097 3101 3104 3108 3112 3113 3115 3117 3119 3120 3122 3122 3121 3121 3119 3117
2992 2996 3002 3007 3013 3017 3021 3026 3029 3033 3036 3038 3041 3045 3050 3055 3058 3061 3062 3063 3064 3068 3075 3080 3085 3090 3090 3094 3098 3102 3104 3105 3108 3111 3112 3112 3113 3114 3114 3113 3112 3111 3111
3002 3006 3010 3015 3016 3022 3028 3032 3036 3040 3041 3043 3046 3049 3052 3057 3060 3062 3062 3062 3065 3071 3076 3081 3086 3087 3089 3090 3094 3097 3101 3101 3103 3105 3105 3105 3107 3106 3107 3106 3106 3105 3103
3013 3019 3023 3025 3028 3031 3034 3036 3039 3041 3042 3045 3049 3051 3054 3057 3057 3058 3059 3060 3065 3070 3075 3079 3082 3085 3087 3089 3091 3094 3095 3095 3097 3097 3099 3098 3099 3100 3100 3100 3099 3098 3097
3017 3021 3026 3029 3031 3033 3036 3038 3039 3041 3042 3044 3048 3050 3052 3055 3055 3056 3058 3058 3063 3067 3072 3075 3078 3079 3081 3083 3086 3088 3088 3090 3090 3090 3093 3092 3093 3092 3092 3092 3091 3090 3089
3023 3025 3027 3029 3031 3033 3034 3037 3038 3040 3042 3044 3046 3048 3049 3051 3053 3054 3056 3058 3060 3064 3066 3070 3072 3074 3076 3078 3079 3083 3082 3084 3083 3082 3085 3085 3085 3085 3084 3083 3082 3082 3080
3023 3024 3027 3027 3029 3030 3032 3035 3036 3036 3040 3043 3045 3046 3049 3049 3050 3052 3052 3055 3057 3059 3062 3063 3066 3067 3069 3071 3072 3074 3075 3077 3076 3075 3075 3075 3075 3076 3075 3074 3074 3072 3071
3028 3028 3027 3029 3029 3030 3031 3032 3032 3033 3035 3037 3040 3043 3045 3046 3047 3047 3048 3050 3052 3052 3055 3056 3059 3060 3060 3061 3062 3066 3065 3067 3067 3068 3068 3069 3068 3068 3066 3066 3065 3064 3062
3029 3028 3028 3028 3029 3029 3029 3030 3032 3034 3035 3037 3038 3040 3040 3040 3040 3041 3042 3044 3045 3046 3047 3048 3049 3053 3054 3054 3055 3057 3057 3059 3059 3059 3060 3060 3060 3059 3057 3057 3055 3055 3054
3026 3028 3029 3030 3030 3029 3028 3028 3028 3029 3031 3031 3032 3034 3033 3032 3032 3034 3034 3035 3036 3036 3036 3039 3041 3043 3045 3046 3047 3050 3050 3050 3052 3051 3051 3052 3051 3051 3050 3048 3048 3047 3048
3025 3026 3024 3023 3026 3028 3026 3025 3026 3025 3026 3026 3028 3027 3026 3026 3028 3027 3027 3027 3029 3027 3029 3032 3033 3036 3037 3039 3042 3041 3041 3042 3043 3042 3042 3042 3043 3043 3041 3040 3041 3041 3039
3020 3018 3017 3018 3020 3018 3017 3018 3019 3019 3020 3020 3020 3020 3019 3019 3019 3019 3020 3020 3020 3020 3023 3025 3027 3028 3029 3030 3032 3031 3032 3033 3034 3033 3032 3031 3032 3035 3033 3031 3032 3033 3031
3011 3010 3010 3009 3007 3006 3006 3007 3008 3009 3011 3009 3010 3009 3009 3010 3010 3010 3010 3009 3011 3013 3014 3016 3017 3019 3020 3020 3021 3023 3022 3022 3021 3021 3023 3023 3024 3026 3025 3023 3024 3024 3025
Wind_Speed
16 23 25 28 29 36 44 58 40 13 6 50 53 49 44 41 40 38 38 38 40 41 42 41 39 36 34 33 32 30 26 22 18 16 14 13 12 12 12 14 16 17 18
18 20 23 24 27 37 34 41 64 38 18 44 45 41 41 40 40 40 40 41 42 43 42 40 38 37 36 35 35 31 27 23 20 19 18 16 15 14 14 16 17 21 24
17 19 24 27 29 34 35 53 59 45 5 26 46 46 45 43 42 41 41 42 42 42 42 41 39 37 35 36 36 32 28 25 23 22 20 16 18 16 18 19 24 22 26
19 23 24 27 19 22 39 41 59 44 11 22 47 48 43 40 39 39 41 43 43 43 42 40 38 37 38 39 37 33 30 28 27 23 22 21 20 20 24 26 22 21 23
23 25 25 34 13 23 21 34 56 53 21 23 40 47 43 41 40 41 43 43 43 41 40 39 39 40 40 40 38 35 32 31 29 26 25 24 23 22 23 28 26 30 28
21 23 26 29 14 17 14 17 44 51 17 25 36 51 43 41 40 42 41 42 42 43 43 42 41 40 41 41 39 37 35 33 31 29 27 26 27 24 30 35 35 32 29
21 23 25 25 20 18 12 15 24 32 15 12 27 47 41 38 36 39 41 43 44 43 42 41 42 42 42 41 40 39 37 36 33 31 29 30 29 32 35 30 31 36 32
26 27 30 27 24 17 9 6 4 30 44 36 27 48 41 39 39 37 39 39 40 40 41 42 43 43 42 42 42 41 39 37 35 30 31 41 33 36 31 29 30 27 24
27 33 30 28 23 19 14 7 6 16 8 11 11 8 35 48 44 42 37 37 36 38 42 44 43 43 44 42 42 41 39 38 34 33 30 32 35 33 25 25 21 19 17
28 30 30 29 27 23 13 9 7 5 8 8 18 17 11 29 32 38 34 37 35 38 40 43 44 44 42 43 42 40 39 38 38 41 32 29 36 23 17 18 18 20 20
27 33 29 29 30 26 20 16 13 12 16 14 11 7 6 14 6 7 19 51 41 41 43 44 43 43 41 39 38 38 40 40 44 42 39 34 22 20 19 20 23 25 25
44 38 33 32 33 30 27 26 24 20 17 17 13 13 7 11 12 14 23 24 28 44 55 48 43 43 40 37 33 39 47 60 43 37 34 23 22 22 23 25 27 29 29
30 41 37 34 32 30 29 27 25 23 20 19 19 16 14 11 11 18 24 26 27 29 46 44 45 41 38 47 32 21 18 18 28 24 20 22 22 22 23 27 30 29 29
31 37 37 37 36 34 30 27 25 23 24 22 19 16 12 12 14 21 24 16 15 19 21 31 29 28 20 28 25 25 19 21 21 22 21 21 23 26 28 28 27 28 29
26 33 29 28 35 34 28 24 22 19 16 13 13 13 13 16 16 16 20 17 17 21 16 20 19 22 21 21 22 21 19 19 20 22 24 26 28 29 28 28 28 29 32
27 18 24 23 25 30 27 22 18 15 14 12 11 12 13 15 14 17 16 15 16 17 18 18 20 21 21 22 23 22 22 23 25 26 26 26 27 27 28 30 31 33 34
15 15 11 13 16 17 19 16 12 9 10 8 8 9 11 14 14 15 15 16 18 20 19 20 20 23 23 23 23 23 23 23 24 25 26 26 27 28 29 31 33 34 35
11 10 10 10 11 12 18 15 13 10 9 7 7 9 12 15 17 18 18 18 20 20 22 22 25 23 22 23 23 24 24 24 24 25 27 27 29 29 30 32 33 33 33
7 8 8 10 12 13 13 14 14 14 13 12 11 11 11 15 19 21 22 23 24 25 26 26 27 27 26 26 27 27 26 26 27 27 28 29 29 30 31 32 32 34 34
7 4 4 5 8 11 14 17 18 19 20 19 17 17 17 18 18 20 22 25 26 27 28 28 29 31 30 28 29 29 29 29 29 28 28 29 30 31 31 32 33 34 33
3 2 1 1 4 7 9 14 17 20 23 23 24 23 23 24 24 24 25 27 29 31 33 35 35 35 32 33 33 32 30 30 29 29 29 29 30 30 33 36 36 33 30
4 5 5 5 6 8 10 13 16 19 22 25 26 27 27 28 30 31 32 33 34 36 37 38 36 37 35 36 37 32 29 31 30 29 29 30 31 33 35 36 34 30 27
11 11 11 11 12 12 13 15 16 18 20 22 24 27 30 31 31 32 32 32 34 34 33 33 34 35 35 34 33 32 31 30 30 30 30 33 33 34 35 33 28 26 26
13 14 15 16 18 18 18 19 20 21 24 25 26 26 26 26 27 27 26 27 27 27 27 27 28 30 31 31 31 31 31 31 31 32 34 34 36 35 34 31 30 27 27
14 15 15 15 17 19 19 20 22 24 26 28 28 29 29 29 30 29 28 27 27 27 28 29 30 32 31 31 32 33 33 34 34 35 36 35 34 35 33 31 30 30 29
23 23 23 24 25 23 23 24 25 27 27 27 31 33 34 34 33 34 34 33 33 32 32 32 32 33 33 33 34 35 35 37 38 37 34 33 34 35 33 32 32 30 30
Wind_Direction
235 240 238 232 233 236 244 236 214 259 311 189 205 207 206 204 203 203 201 199 198 195 194 196 199 199 197 194 191 191 193 198 203 212 222 234 248 258 269 281 287 285 279
224 244 234 229 230 233 242 232 224 235 149 201 205 209 205 205 204 201 201 199 198 196 197 199 201 199 198 195 194 196 201 207 214 223 233 240 250 260 275 290 299 302 282
228 234 241 220 229 234 244 222 227 231 196 179 206 207 206 205 204 201 202 201 200 199 201 200 201 200 200 199 200 203 209 215 223 230 239 249 256 272 283 303 293 291 291
228 231 227 199 205 231 239 243 234 229 227 203 199 207 206 202 202 203 203 204 201 203 205 203 202 201 203 202 205 210 215 222 230 237 246 255 262 278 289 300 304 278 297
223 225 213 201 193 212 227 248 231 234 236 217 188 205 201 201 200 202 204 205 204 205 206 205 206 205 206 207 211 215 221 227 236 240 247 253 262 274 288 289 294 298 290
224 215 193 189 163 165 185 224 236 231 267 210 196 197 198 199 200 204 205 208 208 207 207 208 209 209 210 213 216 220 225 231 236 241 246 252 263 283 286 293 296 298 296
185 177 172 181 169 170 202 263 233 214 201 180 209 198 201 202 203 204 208 209 210 210 212 213 213 214 215 218 220 224 229 233 237 240 247 257 268 283 285 291 293 297 292
185 166 163 150 157 159 143 115 221 240 263 279 184 208 200 199 203 206 207 209 212 214 216 217 219 219 220 222 224 228 232 235 238 242 247 262 267 279 286 291 297 298 293
171 157 145 155 150 148 130 135 241 280 274 337 248 228 197 209 205 204 205 209 212 215 218 220 222 224 226 228 230 232 234 236 237 244 259 263 274 278 284 292 300 299 300
169 162 153 152 146 141 135 159 159 256 186 60 14 350 295 197 207 209 207 214 214 214 218 220 222 223 224 228 232 235 236 238 239 244 257 277 273 275 280 287 288 288 291
149 143 146 148 146 149 170 172 165 182 164 153 147 153 135 180 186 188 212 220 216 211 215 219 223 224 222 228 231 230 237 238 243 267 248 264 272 268 277 280 283 286 291
138 137 141 140 140 141 146 154 158 155 158 155 166 170 166 183 212 212 222 196 201 222 222 219 221 222 223 231 232 244 252 245 253 246 252 254 265 274 275 279 281 284 289
145 134 131 125 128 132 131 128 127 133 136 135 133 137 149 107 115 179 178 205 203 209 213 214 207 218 231 238 228 245 235 222 220 233 250 259 266 273 276 276 279 284 287
102 137 131 131 126 124 123 123 126 134 140 142 140 138 147 165 151 145 166 174 167 163 186 206 198 207 212 209 220 223 225 236 236 241 249 256 263 271 276 277 280 283 288
103 128 126 133 130 128 124 122 120 123 134 140 150 158 163 164 171 170 168 195 207 185 171 193 204 210 209 215 225 235 233 235 241 247 254 261 266 269 273 276 281 284 286
71 107 99 126 119 125 120 120 125 126 126 135 152 166 174 179 181 182 180 183 190 194 193 202 211 215 216 218 223 230 238 240 246 254 258 260 264 268 272 277 280 282 284
96 99 117 119 112 125 133 134 141 148 141 138 149 173 187 196 197 194 195 196 202 204 213 214 214 213 220 225 230 236 242 245 250 254 257 259 263 268 272 276 281 284 285
108 128 149 158 168 161 166 167 174 189 188 182 185 194 200 207 209 212 214 215 219 222 224 224 225 228 231 235 235 242 246 251 254 257 260 262 264 268 273 277 279 282 286
128 140 158 178 189 196 201 204 203 210 216 222 223 223 224 224 221 222 226 229 230 232 231 235 230 233 234 237 240 246 250 255 255 256 260 263 265 271 276 279 283 286 288
82 102 153 181 202 209 212 218 223 221 223 226 229 231 234 236 233 233 235 236 233 234 235 235 236 238 240 243 247 250 252 256 257 259 261 263 268 272 276 279 282 286 289
83 83 76 214 230 236 236 235 236 238 239 239 236 236 240 239 244 247 247 246 243 242 244 248 251 247 248 249 244 249 253 258 261 262 263 267 272 279 282 284 285 285 287
294 302 293 278 267 258 255 249 246 246 248 250 252 247 246 248 249 250 251 252 251 250 249 249 247 246 248 250 257 257 253 256 257 259 264 269 274 279 284 287 289 281 279
281 272 266 263 267 266 262 263 263 257 253 252 250 250 252 253 253 252 250 248 247 247 247 245 243 243 244 246 248 251 252 254 257 260 266 271 275 280 283 284 283 276 275
281 273 271 268 260 252 253 254 252 254 255 253 252 253 250 248 248 247 246 245 245 245 246 244 243 243 243 245 246 248 251 255 258 262 266 271 278 279 282 280 278 277 276
292 288 287 277 269 260 254 251 252 253 251 251 253 250 250 252 253 252 251 249 246 244 245 244 242 242 242 243 245 247 250 254 258 264 270 275 276 279 279 276 277 277 276
305 300 298 294 291 290 287 277 267 257 255 256 254 248 246 246 247 247 247 247 248 248 247 245 245 247 249 249 252 255 256 263 266 267 270 270 270 276 275 275 274 275 274